Location: Blythe
(33.2930°N, 82.2020°W)
Time: 17:54:56
(UTC-04:00)

Hubble Space Telescope - Visible Passes

Search period start: 26 May 2018 00:00
Search period end: 05 June 2018 00:00
Orbit: 537 x 541 km, 28.5° (Epoch: 25 May)

Date Brightness Start Highest point End Pass type
(mag) Time Alt. Az. Time Alt. Az. Time Alt. Az.
27 May 2.2 05:49:35 10° SW 05:53:03 26° SSE 05:56:31 10° ESE visible
28 May 1.9 05:39:11 11° SW 05:42:40 30° SSE 05:46:18 10° ESE visible
29 May 1.7 05:29:14 14° SW 05:32:16 33° S 05:36:01 10° ESE visible
30 May 1.5 05:19:18 18° SW 05:21:53 37° S 05:25:43 10° ESE visible
31 May 1.4 05:09:22 22° SW 05:11:30 39° S 05:15:24 10° ESE visible
01 Jun 1.3 04:59:29 28° SW 05:01:08 41° S 05:05:04 10° ESE visible
02 Jun 1.2 04:49:38 34° SW 04:50:46 42° S 04:54:42 10° ESE visible
03 Jun 1.2 04:39:52 40° SSW 04:40:24 42° S 04:44:20 10° ESE visible
04 Jun 1.2 04:30:12 41° S 04:30:12 41° S 04:33:57 10° ESE visible
